This demonstration page uses our WeatherBlox Daily Observations layout. Learn more.

Left ArrowRight Arrow

36.17497, -115.13722

Hourly Observations for July 26, 2017

Temp ( °F °C ) Dew Point ( °F °C ) Humidity (%) Winds ( mph kmh ) Pressure ( in mb ) Visibility ( mi km ) Precip ( " mm )
12:53 am 00:53 Clear 79 26.1 65 18.3 62 62 SE 3 6 30.04 1017 10 16 N/A
1:53 am 01:53 Mostly Clear 79 26.1 65 18.3 62 62 S 5 7 30.03 1017 10 16 N/A
2:53 am 02:53 Clear 78 25.6 66 18.9 67 67 SSE 5 7 30.03 1017 10 16 N/A
3:53 am 03:53 Clear 77 25 66 18.9 69 69 S 5 7 30.03 1017 10 16 N/A
4:53 am 04:53 Mostly Cloudy 77 25 66 18.9 69 69 SE 5 7 30.04 1017 10 16 N/A
5:53 am 05:53 Sunny 76 24.4 66 18.9 72 72 N N/A 30.05 1018 10 16 N/A
6:53 am 06:53 Sunny 78 25.6 66 18.9 67 67 N N/A 30.05 1018 10 16 N/A
7:53 am 07:53 Sunny 80 26.7 65 18.3 60 60 N N/A 30.06 1018 10 16 N/A
8:53 am 08:53 Sunny 82 27.8 65 18.3 56 56 SE 6 9 30.06 1018 10 16 N/A
9:53 am 09:53 Sunny 84 28.9 65 18.3 53 53 E 7 11 30.07 1018 10 16 N/A
10:53 am 10:53 Sunny 87 30.6 64 17.8 46 46 VRB 6 9 30.06 1018 10 16 N/A
11:53 am 11:53 Sunny 88 31.1 64 17.8 45 45 S 8 13 30.04 1017 10 16 N/A
12:53 pm 12:53 Sunny 90 32.2 62 16.7 39 39 VRB 3 6 30.01 1016 10 16 N/A
1:53 pm 13:53 Sunny 94 34.4 61 16.1 33 33 E 6 9 29.98 1015 10 16 N/A
2:53 pm 14:53 Sunny 95 35 59 15 30 30 VRB 6 9 29.95 1014 10 16 N/A
3:53 pm 15:53 Sunny 97 36.1 61 16.1 30 30 SE 9 15 29.92 1013 10 16 N/A
4:53 pm 16:53 Sunny 98 36.7 59 15 27 27 SE 14 22 29.89 1012 10 16 N/A
5:53 pm 17:53 Sunny 98 36.7 59 15 27 27 E 3 6 29.88 1012 10 16 N/A
6:53 pm 18:53 Sunny 97 36.1 59 15 28 28 ESE 10 17 29.88 1012 10 16 N/A
7:53 pm 19:53 Clear 95 35 58 14.4 29 29 E 14 22 29.88 1012 10 16 N/A
8:53 pm 20:53 Clear 94 34.4 56 13.3 28 28 E 12 19 29.89 1012 10 16 N/A
9:53 pm 21:53 Clear 93 33.9 60 15.6 33 33 E 10 17 29.91 1013 10 16 N/A
10:53 pm 22:53 Clear 91 32.8 61 16.1 37 37 SE 5 7 29.91 1013 10 16 N/A
11:53 pm 23:53 Clear 90 32.2 61 16.1 38 38 SSE 5 7 29.92 1013 10 16 N/A

Powered by AerisWeather